Weather in Apanasenkovskoye

Russia / Stavropol Krai     45°45′07″N   43°33′28″E
temp.,
°C
wind,
m/s
gust,
m/s
humid.,
%
clouds,
%
prec.,
mm/h
press.,
hPa
HPBL,
m
2 august, mon
mon200:00+27sse33375 0.0 101037
03:00+25sse34505 0.0 101048
06:00+25se35555 0.0 1011141
09:00+32se46275 0.1 1011862
12:00+35ese66210 0.0 10102204
15:00+37ese45220 0.0 10092591
18:00+36se362497 0.1 10082774
21:00+31ese473489 0.8 1009138
3 august, tue
tue300:00+27ese35375 0.0 100974
03:00+25se22420 0.0 100918
06:00+25s47520 0.0 1011168
09:00+33s45330 0.0 1011758
12:00+37sse45125 0.0 10102529
15:00+38se341140 0.0 10093254
18:00+37se34120 0.0 1009555
21:00+30s33190 0.0 100926
4 august, wed
wed400:00+29sse33221 0.0 100921
03:00+27sw44340 0.0 101051
06:00+26wsw46439 0.0 1010121
09:00+32w333372 0.0 1011621
12:00+37nw33235 0.0 10101745
15:00+38nw631996 0.0 10102827
18:00+34nnw78295 0.0 1011967
21:00+29nnw611405 0.0 1012358
5 august, thu
thu500:00+27nne512435 0.1 1012325
03:00+26n4849100 0.1 1013203
06:00+25n385178 0.1 1014306
09:00+31nne453450 0.1 1014895
12:00+34n4426100 0.0 10132000
15:00+36nne432397 0.0 10112569
18:00+35nne64245 0.0 10112409
21:00+30ne511330 0.0 1012296
6 august, fri
fri600:00+29ene613301 0.0 1011399
03:00+28ene6132749 0.0 1011486
06:00+26ene512314 0.0 1012455
09:00+32e782580 0.0 10121083
12:00+36e772122 0.0 10102208
15:00+37ene7720100 0.0 10092938
18:00+35ene892198 0.0 10081675
21:00+30ene71420100 0.0 1009467